Regional Weather Roundup
Issued by NWS

Home | Current Version | Previous Version | Graphics & Text | Print | Product List | Glossary On
Versions: 1 2 3 4 5 6 7 8 9 10 11 12 13 14 15 16 17 18 19 20 21 22 23 24 25 26 27
000
ASUS45 KBOU 271607
RWRCO

WEATHER ROUNDUP FOR COLORADO
NATIONAL WEATHER SERVICE DENVER/BOULDER CO
1000 AM MDT FRI MAY 27 2016

NOTE: "FAIR" INDICATES FEW OR NO CLOUDS BELOW 12000 FEET WITH NO
SIGNIFICANT WEATHER AND/OR OBSTRUCTIONS TO VISIBILITY.

COZ001>005-013-030-031-271700-
...NORTHWEST COLORADO...

CITY           SKY/WX    TMP DP  RH WIND       PRES   REMARKS
CRAIG          FAIR      53  41  63 W6        30.00S
HAYDEN         FAIR      50  37  62 NW3       30.00S
MEEKER         FAIR      53  39  59 S6        30.00S
MOUNT WERNER   NOT AVBL
STEAMBOAT SPGS PTSUNNY   46  37  70 CALM      30.00S
WALDEN         FAIR      50  34  53 NW9G18    30.02F
$$

COZ006>008-011-271700-
...WEST CENTRAL VALLEYS...

CITY           SKY/WX    TMP DP  RH WIND       PRES   REMARKS
GRAND JUNCTION FAIR      60  38  43 VRB6      29.94F
MONTROSE       FAIR      55  35  47 W8        30.00F
EAGLE          MOSUNNY   46  43  87 CALM      30.02F
RIFLE          FAIR      57  37  47 VRB5      29.96F
DELTA          FAIR      59  39  46 CALM      29.98S
NUCLA          PTSUNNY   55  34  44 CALM      30.03S
$$

COZ017>023-064>068-271700-
...SOUTHWEST COLORADO...

CITY           SKY/WX    TMP DP  RH WIND       PRES   REMARKS
DURANGO        FAIR      56  32  40 CALM      29.96F
CORTEZ         FAIR      61  34  36 NW8       29.97F
PAGOSA SPRINGS FAIR      49  32  51 CALM      30.00S
TELLURIDE      FAIR      42  35  77 SE3       30.10S
WOLF CREEK PAS PTSUNNY   34  23  64 CALM      30.15R
$$

COZ009-010-012-014-032>034-037-058>063-271700-
...CENTRAL COLORADO...

CITY           SKY/WX    TMP DP  RH WIND       PRES   REMARKS
ASPEN          FAIR      46  36  68 CALM      30.01S
BUENA VISTA    FAIR      52  29  40 N18G25    29.94F
COPPER MTN     NOT AVBL
BERTHOUD PASS  CLOUDY    23  14  68 N14G33    30.09R WCI  11
COTTONWOOD PAS FAIR      46  25  42 SW13      30.02S
GUNNISON       FAIR      52  30  43 SW5       30.01
KREMMLING      PTSUNNY   52  30  43 N7        29.99F
LEADVILLE      CLOUDY    38  28  67 N12G23    30.02S
MONARCH PASS   FOG       28  27  93 W17       30.20R VSB<1/4 WCI  16
SALIDA         FAIR      50  35  55 CALM      30.02S
SUNLIGHT       FAIR      37  30  75 CALM      30.14S
WILKERSON PASS CLOUDY    32  28  86 NE6       30.07R WCI  26
$$

COZ069>075-271700-
...SAN LUIS VALLEY/SANGRE DE CRISTO MOUNTAINS...

CITY           SKY/WX    TMP DP  RH WIND       PRES   REMARKS
ALAMOSA        FAIR      46  37  71 VRB3      29.97F
LA VETA PASS   SNOW      34  32  93 MISG      30.01S VSB 1/4
SAGUACHE       FAIR      45  37  76 SE7       29.98F
$$

COZ035-036-038>040-271700-
...NORTHERN COLORADO FRONT RANGE...

CITY           SKY/WX    TMP DP  RH WIND       PRES   REMARKS
DENVER INTL AP CLOUDY    50  44  80 N20       29.89R
DMNS CITY PARK   N/A     55  43  65 NE23G29   29.89S
AURORA         CLOUDY    48  45  90 N18       29.90R
FRONT RANGE AP LGT RAIN  46  45  93 N14       29.89S
ERIE MUNI ARPT FAIR      58  41  53 N17G26    29.89S
BOULDER MUN AP NOT AVBL
CENTENNIAL     CLOUDY    49  41  74 N18G30    29.90R
BROOMFIELD     NOT AVBL
FORT COLLINS   PTSUNNY   34 N/A N/A N15G26    29.91R WCI  24
LONGMONT       FAIR      61  38  43 N15       29.90S
$$

COZ041-046-047-076>085-087-088-271700-
...PIKES PEAK/PALMER DIVIDE AND SOUTHERN FOOTHILLS...

CITY           SKY/WX    TMP DP  RH WIND       PRES   REMARKS
COLO. SPRINGS  PTSUNNY   54  36  50 N24G35    29.85S
A. F. ACADEMY  FAIR      52  36  54 N31G44    29.85S
SCHRIEVER AFB  NOT AVBL
ELLICOTT       FAIR     N/A N/A N/A N26G33    29.83S
FALCON         CLOUDY    45  42  89 N23       29.88R
FORT CARSON    CLOUDY    54  38  54 N20G29    29.83F
LIMON          RAIN      45  44  97 NW22G30   29.81R FOG
MONUMENT HILL  RAIN      39  37  93 N18G31    29.91S
TRINIDAD       CLOUDY    48  42  80 W16G26    29.87F
$$

COZ042>045-048>051-090-091-271700-
...NORTHEAST COLORADO...

CITY           SKY/WX    TMP DP  RH WIND       PRES   REMARKS
GREELEY ARPT   CLOUDY    54  43  66 N24G31    29.89S
AKRON          CLOUDY    51  48  89 N24G31    29.81R
BURLINGTON     PTSUNNY   58  48  69 NE13      29.75S
WRAY           CLOUDY    59  52  77 NE12G17   29.78S
STERLING       CLOUDY    54  52  94 NE15      29.82S
HOLYOKE        NOT AVBL
FORT MORGAN    LGT RAIN  48  46  91 N14       29.85S
$$

COZ086-089-092>099-271700-
...SOUTHEAST COLORADO...

CITY           SKY/WX    TMP DP  RH WIND       PRES   REMARKS
PUEBLO         PTSUNNY   59  46  62 W15       29.81F
LA JUNTA       LGT RAIN  51  47  86 W20       29.77F
LAMAR          CLOUDY    55  46  71 W18       29.72F
SPRINGFIELD      N/A     53  39  59 W21G31    29.78F
$$




USA.gov is the U.S. government's official web portal to all federal, state and local government web resources and services.